Location: *
(30.9777°N, 31.8805°E)
Time: 16:03:23
(UTC+00:00)

Daily predictions for brighter satellites

Satellite Brightness Start Highest point End
(mag) Time Altitude Azimuth Time Altitude Azimuth Time Altitude Azimuth
Cosmos 2084 Rocket 3.6 16:06:48 10° SSW 16:11:07 56° ESE 16:15:29 10° NE
Cosmos 1707 4.5 16:08:57 10° NE 16:11:12 15° ENE 16:13:25 10° ESE
Cosmos 2360 Rocket 3.2 16:08:33 10° NNW 16:14:02 53° WSW 16:19:31 10° S
ISS -1.7 16:11:50 10° W 16:14:44 28° NW 16:17:39 10° NNE
deb Centaur AC-2 4.0 16:11:17 10° W 16:15:48 80° S 16:20:06 10° E
COSMO-SKYMED 1 3.7 16:12:53 10° N 16:17:06 50° WNW 16:21:16 10° SSW
Cosmos 2322 3.8 16:11:53 10° NNW 16:17:38 90° WSW 16:23:20 10° SSE
COSMOS 2428 3.0 16:13:59 10° N 16:19:28 49° ENE 16:24:56 10° SE
Cosmos 2227 Rocket 2.6 16:17:57 10° S 16:23:10 40° ESE 16:28:23 10° NE
Cosmos 2219 3.2 16:23:00 10° SSW 16:28:45 86° ESE 16:34:31 10° NNE
Cosmos 1455 Rocket 4.5 16:26:10 10° SE 16:29:07 18° E 16:32:04 10° NE
Cosmos 1371 Rocket 4.0 16:25:14 10° S 16:30:26 64° ESE 16:35:43 10° NNE
Envisat 3.7 16:26:19 10° S 16:31:19 60° W 16:36:20 10° NNW
Cosmos 2297 Rocket 2.3 16:27:49 10° S 16:33:18 54° ESE 16:38:48 10° NNE
CZ-4 R/B 1.9 16:29:44 10° S 16:33:33 61° W 16:37:26 10° NNW
CZ-2D R/B 3.6 16:30:02 10° SE 16:33:35 40° ENE 16:37:09 10° N
YAOGAN 6 2.9 16:30:34 10° S 16:34:11 71° W 16:37:52 10° NNW
Lacrosse 5 3.3 16:34:18 10° SSE 16:37:40 18° ESE 16:39:17 16° E
Delta 198 4.5 16:34:49 10° WSW 16:38:57 38° S 16:42:36 16° ESE
Cosmos 2074 Rocket 4.4 16:40:21 10° NNW 16:46:31 69° W 16:52:39 10° S
IUS-13 SRM-1 3.6 16:44:01 10° WSW 16:46:36 35° S 16:51:59 15° ESE
Aureole 1 Rocket 3.0 16:43:28 10° NNW 16:47:38 66° WSW 16:50:56 10° S
Cosmos 2181 Rocket 4.3 16:43:50 10° SSE 16:49:36 41° E 16:55:27 10° NNE
Okean 1 Rocket 4.2 16:49:58 10° SSW 16:54:08 46° W 16:58:19 10° N
Lacrosse 5 rocket 3.1 16:52:26 10° WSW 16:55:32 27° NW 16:58:43 10° NNE
Cosmos 405 Rocket 2.5 16:53:35 10° S 16:57:11 61° E 17:00:50 10° NNE
COSMOS 2455 4.2 16:53:07 10° NW 16:58:41 40° WSW 17:04:13 10° S
Cosmos 2341 Rocket 4.2 16:53:20 10° N 16:59:18 47° E 17:05:13 10° SSE
H-2A R/B 3.5 16:59:47 17° ENE 16:59:47 17° ENE 17:02:29 10° NNE
Cosmos 1939 Rocket 2.6 16:56:23 10° SSE 17:00:14 83° ENE 17:04:06 10° N
Meteor 1-15 Rocket 4.2 16:56:53 10° S 17:02:37 83° E 17:08:29 10° N
Cosmos 1190 Rocket 4.4 17:00:37 10° N 17:05:34 40° ENE 17:07:32 29° ESE
NOSS 3-4 (A) 3.9 17:00:04 10° NNW 17:07:19 66° ENE 17:13:12 19° SE
NOSS 3-4 (C) 3.9 17:00:10 10° NNW 17:07:25 66° ENE 17:13:12 19° SE
ADEOS Rocket 3.8 17:04:07 10° NNE 17:11:19 43° E 17:18:34 10° SSE
Cosmos 614 Rocket 4.1 17:07:07 10° N 17:12:11 51° ENE 17:14:13 32° SE
Cosmos 2237 Rocket 2.4 17:07:07 10° N 17:12:40 51° ENE 17:15:07 31° SE
Cosmos 2333 Rocket 3.0 17:07:17 10° NNW 17:12:49 53° WSW 17:18:22 10° S
Ariane Rocket 3.1 17:08:33 10° S 17:13:35 78° WSW 17:18:40 10° NNW
Cosmos 2154 Rocket 4.3 17:08:28 10° N 17:14:38 70° W 17:20:48 10° S
NOSS 0 Rocket 3.9 17:10:55 10° NNW 17:17:09 85° ENE 17:22:10 17° SSE
SL-8 Rocket 4.1 17:14:43 10° N 17:20:39 49° E 17:23:10 32° SE
BREEZE-M DEB (TANK) 4.2 17:03:24 10° SSW 17:21:22 43° SE 17:23:24 35° ESE
SJ-11-01 4.3 17:19:59 40° SE 17:21:23 56° ENE 17:26:02 10° N
HJ-1C 3.8 17:20:25 25° S 17:22:09 61° W 17:25:30 10° NNW
Cosmos 1980 3.6 17:17:11 10° NNW 17:22:48 69° ENE 17:25:17 34° SE
FREGAT/IRIS 4.4 17:26:04 22° N 17:26:04 22° N 17:27:14 10° N
CZ-2C R/B 4.0 17:26:34 10° N 17:30:57 64° WNW 17:35:18 10° SSW
Cosmos 389 Rocket 2.7 17:27:59 10° NNW 17:31:24 63° W 17:31:29 63° WSW
Cosmos 1420 Rocket 3.9 17:26:41 10° SSW 17:31:58 86° ESE 17:37:18 10° NNE
Cosmos 407 Rocket 3.3 17:28:35 10° NNW 17:33:43 90° W 17:35:34 41° SSE
Cosmos 1892 Rocket 3.4 17:31:27 10° N 17:35:53 88° W 17:36:36 62° S
Mugunghwa Rocket 4.0 17:33:32 10° WSW 17:39:44 59° S 17:40:50 51° SE
ASTEX 1 4.4 17:35:45 10° N 17:40:25 46° W 17:45:05 10° SSW
Cosmos 2219 Rocket 4.1 17:38:33 10° NW 17:43:09 27° WSW 17:47:47 10° SSW
SL-16 R/B 3.3 17:40:26 10° N 17:44:09 30° NE 17:44:09 30° NE
GEOS 3 Rocket 3.9 17:48:57 52° NNE 17:48:57 52° NNE 17:53:25 10° NNW
Cosmos 1140 Rocket 3.3 17:44:45 10° NNW 17:49:43 80° NNE 17:49:43 80° NNE
ATLAS 2AS CENTAUR R/B 3.8 17:43:37 10° NW 17:50:22 41° WSW 17:55:58 13° S
Meteor 1-22 Rocket 4.3 17:47:23 10° S 17:53:26 88° W 17:59:35 10° N
Meteor 2-5 Rocket 3.7 17:50:10 10° N 17:56:04 87° E 17:56:42 73° SSE
ARGOS 3.6 17:57:46 49° NNE 17:57:46 49° NNE 18:01:49 10° N
Cosmos 1954 Rocket 4.5 17:51:55 10° N 17:55:50 50° N 17:55:50 50° N
Aurora 2 Rocket 4.2 17:56:29 10° WSW 18:06:38 59° S 18:07:40 56° SSE
SPOT 3 Rocket 3.9 18:09:17 61° W 18:09:17 61° W 18:14:09 10° NNW
CZ-3A R/B 4.3 16:41:16 10° WSW 18:14:12 69° S 18:18:07 52° SE
Lacrosse 5 3.1 18:15:17 10° SW 18:18:37 37° W 18:18:37 37° W
H-2A R/B 3.8 18:40:25 27° NW 18:40:25 27° NW 18:43:00 10° NNW
